200 serials | pro.cycling.manager.tour.de.france.12

Date Name Success Rate
2009-10-22 23:45:57 Cycling Manager 3 0%
2009-10-22 23:45:57 Cycling Manager 4 0%
2011-09-08 10:33:25 Cycling Manager 3 0%
2012-12-13 03:33:40 Pro cycling manager 14%
2011-09-08 10:57:01 France Administrative 1.5 65%
2011-09-08 10:57:01 France Administrative v1.5 0%
2012-12-13 13:04:51 TomTom GO 300 France 0%
2012-12-13 13:04:54 TomTom Go France 0%
2009-10-22 23:47:53 FotoBulle Standard 2.0 France 0%
2009-10-22 23:45:57 Cycling Manger 3 0%
2011-09-08 10:33:25 Cycling Manger 3 0%
2009-10-22 23:46:28 Dragon Naturally Speaking 8 Dutch/Eng/France 0%
2012-12-12 14:22:17 Hoffmann Lotto-Experte Loto France v1.0 0%
2009-10-17 06:20:50 Cycling Diary 2005 V2.4.0-CSS 16%
2009-10-22 23:45:57 Cycling Diary 2005 2.4.0 0%
2011-09-08 10:33:25 Cycling Diary 2005 2.4.0 0%
2009-10-17 06:21:18 Database Tour Pro V5.64 23%
2009-10-22 23:46:25 Database Tour 4.9.3.6 100%
2009-10-22 23:46:25 Database Tour Pro V5.64 61%
2011-09-08 10:42:13 Database Tour 3.1 0%
2011-09-08 10:42:13 Database Tour 4.9.3.6 0%
2011-09-08 10:42:13 Database Tour 4.9.4.4 0%
2011-09-08 10:42:13 Database Tour v3.1 0%
2011-09-08 10:42:13 Database Tour v4.9.3.6 0%
2011-09-08 12:30:17 PGA Tour 2002 0%
2011-09-08 12:30:17 PGA Tour 2003 0%
2011-09-08 12:30:17 PGA Tour 2004 0%
2011-09-08 12:30:17 PGA Tour 2004 v1.0 0%
2009-10-17 06:21:18 Database Tour Pro V5.8.4.1271-DOA 16%
2009-10-17 06:33:27 Tiger Woods PGA Tour 06 0%
2009-10-17 06:33:27 Tiger Woods PGA Tour 08 65%
2009-10-22 23:46:25 Database Tour Pro V5.8.4.1271 56%
2009-10-22 23:48:30 Key Earth 3D Space Tour 0%
2009-10-22 23:50:10 Tiger Woods PGA Tour 06 0%
2009-10-22 23:50:10 Tiger Woods PGA Tour 07 0%
2009-10-22 23:50:10 Tiger Woods Pga Tour 07 0%
2009-10-22 23:50:10 Tiger Woods PGA Tour 08 0%
2009-10-22 23:50:10 Tiger Woods USA Tour 0%
2009-10-22 23:50:10 Tigerwood Pga Tour 2006 0%
2011-09-08 10:42:13 Database Tour v4.9.2.26 by DIGERATI 0%
2011-09-08 10:46:43 Earth 3D Space Tour v1.1 0%
2011-09-08 11:29:26 Mars 3D Space Tour v1.1 0%
2011-09-08 11:33:31 Moon 3D Space Tour v1.1 0%
2011-09-08 12:54:03 Tiger Woods PGA Tour 1.0 0%
2011-09-08 12:54:03 Tiger Woods USA Tour 0%
2009-10-22 23:47:39 Earth 3D Space Tour ScreenSaver 1.1 0%
2009-10-22 23:48:46 Mars 3D Space Tour Screensaver 1.1 0%
2009-10-22 23:48:51 Moon 3D Space Tour ScreenSaver 1.1 0%
2009-10-22 23:50:10 Tiger Woods PGA Tour 2004 0%
2009-10-22 23:50:10 Tiger Woods PGA TOUR 08 HARTED 0%
2009-10-22 23:50:10 Tiger Woods PGA Tour 2003 0%
2009-10-22 23:50:10 Tiger Woods Pga Tour 2004 0%
2009-10-22 23:50:10 Tiger Woods PGA Tour 2004 1.0 0%
2009-10-22 23:50:10 Tiger Woods PGA Tour 2005 0%
2009-10-22 23:50:10 Tiger Woods Pga Tour 2006 0%
2011-09-08 10:46:43 Earth 3D Space Tour screensaver 1.1 0%
2011-09-08 10:46:43 Earth 3D Space Tour screensaver v1.1 0%
2011-09-08 11:16:38 Internet Tour Guide Win 2nd edition 0%
2011-09-08 11:29:26 Mars 3D Space Tour Screensaver 0%
2011-09-08 11:29:26 Mars 3D Space Tour Screensaver v1.1 0%
2011-09-08 11:33:31 Moon 3D Space Tour ScreenSaver 1.1 0%
2011-09-08 11:33:31 Moon 3D Space Tour ScreenSaver v1.1 20%
2011-09-08 12:34:25 Playlist Creator for BlackBerry Tour 2.0 55%
2011-09-08 12:54:03 Tiger Woods PGA Tour 2001 0%
2011-09-08 12:54:03 Tiger Woods PGA Tour 2001 1.0 0%
2011-09-08 12:54:03 Tiger Woods PGA Tour 2001 v1.0 0%
2011-09-08 12:54:03 Tiger Woods Pga Tour 2001ver1.0 0%
2011-09-08 12:54:03 Tiger Woods PGA Tour 2002 0%
2011-09-08 12:54:03 Tiger Woods PGA Tour 2002 1.0 0%
2011-09-08 12:54:03 Tiger Woods PGA Tour 2003 0%
2011-09-08 12:54:03 Tiger Woods PGA Tour 2003 1.0 0%
2011-09-08 12:54:03 Tiger Woods PGA Tour 2004 0%
2011-09-08 12:54:03 Tiger Woods PGA TOUR 2004 1.0 0%
2011-09-08 12:54:03 Tiger Woods PGA Tour 2004 v1.0 0%
2011-09-08 12:54:03 Tiger Woods Pga Tour 2005 0%
2011-09-08 12:54:03 Tiger Woods PGA Tour 2005 - 100%
2011-09-08 12:54:03 Tiger Woods PGA TOUR 2005 1.0 0%
2011-09-08 12:54:03 Tiger Woods PGA TOUR 2006 0%
2011-09-08 12:54:03 Tiger Woods PGA TOUR 2007 0%
2011-09-08 12:54:03 Tiger Woods PGA TOUR 2008 0%
2011-09-08 13:20:44 World Tour Beach Vollyball 1.0 0%
2011-09-08 13:20:44 World Tour Beach Vollyball v1.0 0%
2009-10-22 23:50:10 Tiger Woods PGA Tour 2004(Works!!) 0%
2009-10-22 23:50:10 Tiger Woods Pga Tour Golf 2003 0%
2011-09-08 10:46:43 EA Sports - Tiger Woods PGA Tour 2006 1 0%
2011-09-08 12:54:03 Tiger Woods PGA Tour 2002 (null) 0%
2011-09-08 12:54:03 Tiger Woods PGA Tour 2003 (null) 0%
2011-09-08 12:54:03 Tiger Woods PGA Tour 2004 (null) 0%
2011-09-08 12:54:03 Tiger Woods PGA Tour 2004 Works!! 0%
2011-09-08 12:54:03 Tiger Woods PGA Tour 2005 (null) 0%
2012-12-13 05:40:20 RinjaniSoft Playlist Creator for BlackBerry Tour v2.0 0%
2012-12-13 05:40:23 RinjaniSoft Playlist Creator for BlackBerry Tour v2.3 0%
2012-12-13 05:40:26 RinjaniSoft Playlist Creator for BlackBerry Tour v2.32 0%
2009-10-22 23:50:10 Tiger Woods PGA Tour 2004 Serial Number 0%
2009-10-17 06:23:39 Genie File Access Manager V3.10.1 For Genie Backup Manager 44%
2009-10-17 06:23:39 Genie File Access Manager V3.12.6 For Genie Backup Manager 15%
2009-10-17 06:23:39 Genie File Access Manager V3.12.8 For Genie Backup Manager 22%
2009-10-17 06:23:39 Genie File Access Manager V3.7 For Genie Backup Manager 18%
2009-10-17 06:23:39 Genie File Access Manager V3.7.6 For Genie Backup Manager 19%
2009-10-17 06:23:39 Genie File Access Manager V3.9 For Genie Backup Manager 7%
2009-10-22 23:48:00 Genie File Access Manager V3.10.1 For Genie Backup Manager 0%
2009-10-22 23:48:00 Genie File Access Manager V3.12.6 For Genie Backup Manager 0%
2009-10-22 23:48:00 Genie File Access Manager V3.9 For Genie Backup Manager 0%
2011-09-08 11:02:18 Genie File Access Manager for Genie Backup Manager 3.7.6 0%
2009-10-17 06:19:31 BG CD Manager V 1.40.655-CRD 15%
2009-10-17 06:19:31 BG CD Manager V1.41 11%
2009-10-17 06:30:02 PDF Manager 3.00 0%
2009-10-22 23:44:49 BG CD Manager 1.41 0%
2009-10-22 23:44:49 BG CD Manager V.1.40.655 0%
2009-10-22 23:45:50 CD Manager 8.10.3 0%
2009-10-22 23:45:50 CD-Manager 8.10.2 0%
2009-10-22 23:47:49 Far Manager V1.70 0%
2009-10-22 23:48:30 KML Manager V1.0.9.3 0%
2009-10-22 23:48:30 KML Manager V1.0.9.4 0%
2009-10-22 23:48:30 KML Manager V1.0.9.9 0%
2009-10-22 23:48:46 Manager 1.02 0%
2009-10-22 23:48:46 Manager 8.10.3 0%
2009-10-22 23:49:54 SJ CD Manager 0%
2009-10-22 23:50:13 TTf Manager 3.7.81 0%
2009-10-22 23:50:18 Ue Ei Manager II 2.04 0%
2009-10-22 23:50:35 Win Manager 4.92 0%
2009-10-22 23:50:35 Win Manager 4.93 0%
2011-09-08 10:19:38 BG CD Manager 1.41 0%
2011-09-08 10:19:38 BG CD Manager v1.40.655 0%
2011-09-08 10:19:38 BG CD Manager v1.41 0%
2011-09-08 10:24:31 CD Manager 0%
2011-09-08 10:24:31 CD Manager 1.0.12 0%
2011-09-08 10:24:31 CD Manager 1.0.13.0 0%
2011-09-08 10:24:31 CD Manager 2.0 0%
2011-09-08 10:24:31 CD Manager v1.0.12 0%
2011-09-08 10:24:31 CD Manager v1.0.13.0 0%
2011-09-08 10:24:31 CD Manager v2.0 0%
2011-09-08 10:24:31 CD Manager v8.10.2 0%
2011-09-08 10:24:31 CD Manager v8.10.3 0%
2011-09-08 10:24:47 CD-Manager 8.10.2 0%
2011-09-08 10:24:47 CD-Manager 8.10.3 0%
2011-09-08 10:24:47 CD-Manager v8.10.3 0%
2011-09-08 10:48:38 EB DOC Manager 12.5 0%
2011-09-08 10:53:52 Far Manager v.xxx 0%
2011-09-08 10:57:46 FTP-Manager 4.1.0.1 0%
2011-09-08 10:57:46 FTP-Manager 5.0 0%
2011-09-08 10:57:46 FTP-Manager v4.1.0.1 0%
2011-09-08 10:57:46 FTP-Manager v5.0 0%
2011-09-08 11:09:36 HR Manager 3.1 0%
2011-09-08 11:09:36 HR Manager v3.1 0%
2011-09-08 11:15:24 INI Manager 2.70 0%
2011-09-08 11:15:24 INI Manager v2.7 0%
2011-09-08 11:15:24 INI Manager v2.70 0%
2011-09-08 11:17:29 IT Manager 1.11 0%
2011-09-08 11:17:29 IT Manager v1.0 0%
2011-09-08 11:17:29 IT Manager v1.11 0%
2011-09-08 11:29:12 Manager v5.4 0%
2011-09-08 11:34:12 MP3 Manager 1.0 0%
2011-09-08 11:34:12 MP3 Manager 1.01 0%
2011-09-08 11:34:12 MP3 Manager 2.0 0%
2011-09-08 11:34:12 MP3 Manager 2.5.0 0%
2011-09-08 11:34:12 MP3 Manager v1.0 0%
2011-09-08 11:34:12 MP3 Manager v1.01 0%
2011-09-08 11:34:12 MP3 Manager v2.0 0%
2011-09-08 11:34:12 MP3 Manager v2.5.0 0%
2011-09-08 11:41:25 Net Manager 4.6 0%
2011-09-08 11:41:25 Net Manager v4.6 0%
2011-09-08 12:29:25 PDF Manager v3.00 0%
2011-09-08 12:30:17 PGP Manager 32 v1.6b 0%
2011-09-08 12:30:17 PGP Manager v3.0 0%
2011-09-08 12:44:15 Run Manager 1.1 0%
2011-09-08 12:44:15 Run Manager v1.1 0%
2011-09-08 12:47:45 SIM Manager 2.8 0%
2011-09-08 12:48:11 SJ CD Manager 0%
2011-09-08 12:49:11 SMS Manager v2.1.6 0%
2011-09-08 12:52:00 TCP Manager 1.0 0%
2011-09-08 12:52:00 TCP Manager v1.0 0%
2011-09-08 12:56:07 TTf Manager 3.7.81 0%
2011-09-08 12:56:21 TV Manager 1.1 0%
2011-09-08 12:56:21 TV Manager v1.1 0%
2011-09-08 13:07:37 Ue Ei Manager II 2.04 0%
2011-09-08 13:08:46 URL Manager 1.1.x 0%
2011-09-08 13:08:46 URL Manager 1.3.1 0%
2011-09-08 13:08:46 URL Manager 2.0b3 0%
2011-09-08 13:08:46 URL Manager 2.5.x 0%
2011-09-08 13:08:46 URL Manager 2.6.x 0%
2011-09-08 13:08:46 URL Manager 2.7.1 0%
2011-09-08 13:08:46 URL Manager 2.7fc 0%
2011-09-08 13:08:46 URL Manager Pro 2.0 0%
2011-09-08 13:08:46 URL Manager Pro v2.0 0%
2011-09-08 13:08:46 URL Manager v1.1.x 0%
2011-09-08 13:08:46 URL Manager v1.3.1 0%
2011-09-08 13:08:46 URL Manager v2.0b3 0%
2011-09-08 13:08:46 URL Manager v2.5.x 0%
2011-09-08 13:08:46 URL Manager v2.6.x 0%
2011-09-08 13:08:46 URL Manager v2.7.1 0%
2011-09-08 13:16:05 Web Log Manager 1.0.45 0%
2011-09-08 13:16:05 Web Log Manager 1.00.42 0%
2011-09-08 13:16:05 Web Log Manager v1.0.45 0%
2011-09-08 13:16:05 Web Log Manager v1.00.42 0%
2011-09-08 13:17:25 Win Manager 2.50 0%
2011-09-08 13:17:25 Win Manager v2.50 0%
2011-09-08 13:17:28 Win Xp Manager 4.89.2 0%
2011-09-08 13:17:28 Win Xp Manager 4.90.1 0%
2011-09-08 13:23:50 Zip Manager 5.3 0%